カタログに戻る

THOR ABLESTAR R/B

運用中LEO
NORAD 118·ROCKET BODY·🇺🇸 United States

打ち上げ Jun 29, 1961 から Cape Canaveral Space Force Station

Loading…

次のパス (今後24時間)

TLE

最新Source: Space-Track

元期: Sep 14, 2026, 06:21 UTC

1 00118U 61015C   26257.26508017  .00000001  00000-0  50670-4 0  9997
2 00118  66.7633 198.3315 0085965 213.0476 146.5221 14.02759392328634

AllMySatでTHOR ABLESTAR R/Bをリアルタイム追跡

Download on the App Store